Location: Dehesa de la Cepeda
(40.6574°N, 4.3013°W)
Time: 01:05:44
(UTC+00:00)

Courier 1B - Pass Details

Date: 04 August 2021
Orbit: 963 x 1209 km, 28.3° (Epoch: 17 September)

Event Time Altitude Azimuth Distance (km) Brightness Sun altitude
Rises 15:57:45 0° 201° (SSW) 4,017 11.1 38.4°
Reaches altitude 10° 16:02:40 10° 174° (S) 3,100 10.3 37.5°
Maximum altitude 16:05:33 12° 152° (SSE) 2,938 10.0 37.0°
Drops below altitude 10° 16:08:28 10° 130° (SE) 3,133 9.9 36.4°
Sets 16:13:29 0° 103° (ESE) 4,108 10.3 35.5°
